[[{"header":{"parameterUnit":"m.s-1","parameterCategory":1,"la1":30.2991,"la2":30.254,"lo1":-89.0895,"lo2":-89.0444,"dy":0.0017,"dx":0.0017,"nx":28,"ny":28,"refTime":"2025-09-18T21:00:00:Z","depth":0,"parameterNumber":2,"parameterNumberName":"U-component_of_WINDS"},"data":[0,0,0,0,0,0,0,0,0,0,0,0,0,0,0,0,0,0,0,0,0,0,0,0,0,0,0,0,0,0,0,0,0,0,0,0,0,0,0,0,0,0,0,0,0,0,0,0,0,0,0,0,0,0,0,0,0,0,2.7723,2.7724,0,2.7802,2.7803,2.7804,2.7736,2.7733,2.773,2.7727,2.7811,2.7816,2.782,0,0,0,0,0,0,0,0,0,0,0,0,0,2.7515,2.7519,2.7723,2.7724,2.7725,2.7802,2.7803,2.7804,2.7736,2.7733,2.7729,2.7726,2.7809,2.7815,2.7821,0,0,0,0,0,0,0,0,0,0,0,0,0,2.7601,2.752,2.7723,2.77,2.7699,2.7802,2.7803,2.7804,2.7737,2.7733,2.7728,2.7724,2.7807,2.7815,2.7822,2.7952,0,0,2.7844,2.7847,0,0,0,0,0,0,0,0,2.7596,2.7608,2.7702,2.7702,2.7701,2.7754,2.776,2.7854,2.7738,2.7723,2.7727,2.7722,2.7796,2.7804,2.7828,2.7955,2.7959,2.7845,2.7849,2.7852,2.7854,0,0,0,0,0,0,0,2.759,2.7605,2.7754,2.7704,2.7703,2.7687,2.7694,2.7778,2.7782,2.7724,2.7719,2.7729,2.7794,2.7821,2.7829,2.796,2.7844,2.7851,2.7855,2.7858,2.8198,2.8203,0,0,0,0,0,0,2.7586,2.76,2.7752,2.7756,2.7637,2.7694,2.7702,2.7742,2.7781,2.7783,2.7732,2.7725,2.7811,2.7821,2.7832,2.7987,2.7852,2.7859,2.7863,2.8193,2.8199,2.8204,0,0,0,0,0,0,2.7582,2.76,2.7748,2.7677,2.7695,2.7702,2.7747,2.7745,2.7772,2.7788,2.7788,2.7759,2.7808,2.7822,2.7922,2.7989,2.7862,2.7869,2.8188,2.8195,2.8202,2.8297,0,0,0,0,0,0,2.7576,2.7599,2.7648,2.7679,2.7699,2.7837,2.7751,2.775,2.7784,2.7776,2.7812,2.7815,2.7806,2.7912,2.7929,2.7996,2.7875,2.8182,2.8191,2.8199,2.8288,2.8307,2.8322,0,0,0,0,0,2.7569,2.7673,2.7651,2.767,2.776,2.7841,2.7852,2.7839,2.779,2.784,2.785,2.7813,2.7978,2.7922,2.7942,2.8012,2.8178,2.8189,2.8199,2.8281,2.8303,2.8322,0,0,0,0,0,0,2.7651,2.7676,2.7653,2.7769,2.7803,2.7829,2.7892,2.7864,2.7913,2.7903,2.7886,2.7894,2.8,2.8016,2.7953,2.814,2.807,2.8085,2.8126,2.8147,2.8164,2.8158,2.7881,0,0,0,0,0,2.7683,2.7745,2.7764,2.7865,2.7883,2.7885,2.7919,2.7906,2.7941,2.7956,2.7973,2.8009,2.8069,2.8109,2.8165,2.829,2.8297,2.8348,2.8365,2.8379,2.8392,2.8459,2.8482,2.8239,2.8238,2.8238,0,0,2.7749,2.777,2.7811,2.7882,2.7907,2.7973,2.7897,2.797,2.8019,2.7967,2.8062,2.8076,2.8115,2.8229,2.828,2.8245,2.8461,2.8392,2.8403,2.8409,2.8473,2.8496,2.8516,2.8246,2.8244,2.8243,0,0,2.7903,2.7925,2.8012,2.8038,2.8076,2.8076,2.8097,2.8127,2.8134,2.8229,2.8191,2.8249,2.8353,2.8382,2.8411,2.8575,2.8544,2.8594,2.8683,2.8749,2.8769,2.8785,2.8844,2.8866,2.8607,2.8607,2.8607,0,2.798,2.8078,2.806,2.8136,2.8168,2.8122,2.821,2.8236,2.8292,2.8315,2.8276,2.8404,2.8427,2.8547,2.8587,2.8611,2.8635,2.859,2.8767,2.8784,2.8799,2.8856,2.8878,2.8613,2.8612,2.8612,2.8611,0,2.8171,2.8239,2.8305,2.8358,2.8398,2.8479,2.8474,2.8517,2.85,2.8504,2.8602,2.8628,2.8688,2.8715,2.87,2.8833,2.881,2.8769,2.8699,2.8829,2.8881,2.8903,2.8621,2.8619,2.8617,2.8616,0,0,2.8381,2.8422,2.8447,2.847,2.8508,2.8561,2.864,2.8698,2.8735,2.8774,2.8841,2.8929,2.8891,2.8923,2.8911,2.8968,2.9097,2.892,2.8921,2.8953,2.9246,2.9277,2.9302,2.9076,2.908,2.9083,2.9242,0,2.8537,2.8674,2.866,2.8791,2.8854,2.881,2.8879,2.8911,2.8917,2.8971,2.8978,2.9041,2.8986,2.9005,2.906,2.907,2.9156,2.9058,2.9139,2.9142,2.9131,2.9329,2.9362,2.9511,2.9263,2.9266,2.9269,0,2.8738,2.8783,2.892,2.8948,2.8974,2.9036,2.9088,2.914,2.9175,2.9175,2.9211,2.9188,2.9268,2.9195,2.9306,2.924,2.9272,2.9282,2.9287,2.9295,2.9214,2.9343,2.9558,2.9581,2.9301,2.9298,2.9296,0,2.8878,2.8973,2.9067,2.9088,2.9123,2.9168,2.9185,2.9215,2.925,2.9296,2.9319,2.9373,2.9403,2.9446,2.9439,2.9387,2.9552,2.9478,2.9555,2.9555,2.9593,2.9591,2.9817,2.9612,2.9612,2.9611,2.9611,0,2.9054,2.914,2.913,2.9188,2.9283,2.9265,2.936,2.9371,2.9398,2.9458,2.9424,2.9481,2.9467,2.9524,2.9519,2.9611,2.9625,2.9628,2.9626,2.9632,2.9631,2.9653,2.9643,2.9617,2.9616,2.9615,2.9614,0,2.9227,2.9224,2.9324,2.9348,2.9356,2.9425,2.9446,2.9501,2.9503,2.9579,2.9596,2.9601,2.9666,2.9662,2.9736,2.9732,2.9846,2.9832,2.9835,2.9832,2.9909,2.9902,3.0158,3.019,2.9964,2.9966,2.9968,0,2.9341,2.9405,2.9436,2.9473,2.9492,2.9553,2.9588,2.9574,2.9612,2.9656,2.9706,2.9767,2.9816,2.9922,2.9932,2.9988,2.9975,3.0061,2.9983,2.9987,2.9977,2.9973,2.998,3.0076,3.0079,3.0081,3.0083,0,2.9542,2.9537,2.9589,2.9641,2.9684,2.9725,2.9762,2.9794,2.9783,2.9828,2.9894,2.9931,3.0005,3.0067,3.0121,3.0138,3.011,3.0107,3.0127,3.0135,3.0134,3.0136,2.9877,3.0101,3.0099,3.0098,3.0097,3.0096,2.9689,2.9745,2.9775,2.9834,2.986,2.9895,2.9947,2.9955,3.0009,3.0068,3.0056,3.013,3.0162,3.023,3.0253,3.0311,3.028,3.031,3.0318,3.0326,3.0335,3.0124,3.032,3.032,3.0319,3.0319,3.0319,0,2.989,2.9907,2.9961,3.0013,3.006,3.0026,3.0065,3.0107,3.0171,3.0203,3.0251,3.0326,3.0385,3.04,3.0457,3.05,3.0488,3.0516,3.0513,3.0518,3.0359,3.0335,3.0524,3.0524,3.0524,3.0524,3.0524,3.0524,3.0,3.0092,3.009,3.0194,3.021,3.0281,3.0306,3.0338,3.0363,3.0448,3.0497,3.0505,3.053,3.0588,3.0641,3.0644,3.0667,3.07,3.0698,3.0549,3.0529,3.0509,3.0487,3.0705,3.0705,3.0852,3.0853,3.0854]},{"header":{"parameterUnit":"m.s-1","parameterCategory":1,"la1":30.2991,"la2":30.254,"lo1":-89.0895,"lo2":-89.0444,"dy":0.0017,"dx":0.0017,"nx":28,"ny":28,"refTime":"2025-09-18T21:00:00:Z","depth":0,"parameterNumber":3,"parameterNumberName":"V-component_of_WINDS"},"data":[0,0,0,0,0,0,0,0,0,0,0,0,0,0,0,0,0,0,0,0,0,0,0,0,0,0,0,0,0,0,0,0,0,0,0,0,0,0,0,0,0,0,0,0,0,0,0,0,0,0,0,0,0,0,0,0,0,0,-0.8839,-0.884,0,-0.8888,-0.8889,-0.8889,-0.8908,-0.8908,-0.8908,-0.8907,-0.8958,-0.8959,-0.8961,0,0,0,0,0,0,0,0,0,0,0,0,0,-0.8763,-0.8765,-0.8839,-0.884,-0.884,-0.8888,-0.8889,-0.8889,-0.8908,-0.8908,-0.8908,-0.8907,-0.8957,-0.8959,-0.8961,0,0,0,0,0,0,0,0,0,0,0,0,0,-0.8803,-0.8765,-0.8839,-0.8855,-0.8857,-0.8888,-0.8889,-0.889,-0.8908,-0.8908,-0.8908,-0.8907,-0.8957,-0.8959,-0.8961,-0.8979,0,0,-0.8968,-0.8969,0,0,0,0,0,0,0,0,-0.88,-0.8805,-0.8852,-0.8854,-0.8857,-0.8892,-0.888,-0.892,-0.8908,-0.8889,-0.8907,-0.8907,-0.8936,-0.894,-0.8949,-0.8981,-0.8983,-0.8968,-0.8969,-0.897,-0.8971,0,0,0,0,0,0,0,-0.8798,-0.8803,-0.8859,-0.8853,-0.8856,-0.8861,-0.8866,-0.8888,-0.8913,-0.889,-0.8892,-0.8897,-0.8937,-0.8947,-0.8951,-0.8984,-0.8968,-0.897,-0.8971,-0.8972,-0.9036,-0.9036,0,0,0,0,0,0,-0.8792,-0.8801,-0.8857,-0.886,-0.8827,-0.8862,-0.8868,-0.8881,-0.8913,-0.8917,-0.8898,-0.8898,-0.8944,-0.8948,-0.8953,-0.8977,-0.897,-0.8972,-0.8973,-0.9035,-0.9036,-0.9036,0,0,0,0,0,0,-0.879,-0.8797,-0.8855,-0.8831,-0.8839,-0.8864,-0.8878,-0.8882,-0.8892,-0.8918,-0.8923,-0.8903,-0.8944,-0.8949,-0.8973,-0.8979,-0.8973,-0.8975,-0.9035,-0.9035,-0.9036,-0.9025,0,0,0,0,0,0,-0.8788,-0.8796,-0.8803,-0.8831,-0.884,-0.8874,-0.8878,-0.8883,-0.8896,-0.8897,-0.8925,-0.8929,-0.8944,-0.8969,-0.8975,-0.8982,-0.8977,-0.9034,-0.9035,-0.9036,-0.9025,-0.9025,-0.9025,0,0,0,0,0,-0.8785,-0.8797,-0.8803,-0.8809,-0.8849,-0.8874,-0.8879,-0.8896,-0.8896,-0.8903,-0.8921,-0.8928,-0.8978,-0.8972,-0.8978,-0.8986,-0.9034,-0.9035,-0.9036,-0.9025,-0.9025,-0.9025,0,0,0,0,0,0,-0.8768,-0.8801,-0.8808,-0.8829,-0.8849,-0.8877,-0.8886,-0.8895,-0.8915,-0.8915,-0.8935,-0.8941,-0.8963,-0.8977,-0.897,-0.9006,-0.9006,-0.9009,-0.8996,-0.8996,-0.8997,-0.8993,-0.8979,0,0,0,0,0,-0.8767,-0.8785,-0.8813,-0.8829,-0.8838,-0.8861,-0.8872,-0.8884,-0.8905,-0.8913,-0.8932,-0.8952,-0.8973,-0.8985,-0.9005,-0.9028,-0.9035,-0.9036,-0.9036,-0.9036,-0.9038,-0.9052,-0.9054,-0.9039,-0.9039,-0.9039,0,0,-0.8764,-0.8785,-0.8794,-0.8826,-0.8842,-0.8861,-0.8867,-0.8886,-0.89,-0.8916,-0.8939,-0.8954,-0.8978,-0.9002,-0.9013,-0.9014,-0.9044,-0.9037,-0.9037,-0.9039,-0.9053,-0.9055,-0.9056,-0.9039,-0.9039,-0.9039,0,0,-0.8769,-0.8786,-0.8802,-0.8819,-0.8844,-0.8859,-0.8863,-0.8891,-0.8902,-0.8926,-0.8938,-0.8956,-0.899,-0.9007,-0.902,-0.9035,-0.9043,-0.9041,-0.9041,-0.9055,-0.9057,-0.9058,-0.9064,-0.9065,-0.9042,-0.9042,-0.9042,0,-0.8763,-0.8791,-0.8809,-0.8828,-0.8842,-0.8858,-0.8875,-0.889,-0.8921,-0.893,-0.8931,-0.8976,-0.8993,-0.9021,-0.9025,-0.9035,-0.9041,-0.9037,-0.9055,-0.9056,-0.9058,-0.9063,-0.9066,-0.9042,-0.9042,-0.9042,-0.9042,0,-0.8782,-0.8801,-0.8811,-0.8841,-0.8856,-0.8874,-0.8896,-0.8909,-0.892,-0.8936,-0.8961,-0.8983,-0.9008,-0.9016,-0.9026,-0.9047,-0.9047,-0.9051,-0.9052,-0.9058,-0.9064,-0.9066,-0.9041,-0.9041,-0.9042,-0.9042,0,0,-0.8776,-0.8817,-0.882,-0.8835,-0.8865,-0.8881,-0.89,-0.8925,-0.8937,-0.8958,-0.8975,-0.9005,-0.901,-0.9025,-0.9038,-0.905,-0.9062,-0.9053,-0.9054,-0.9055,-0.9087,-0.9083,-0.9085,-0.9068,-0.9068,-0.9069,-0.9085,0,-0.8785,-0.8819,-0.8837,-0.8865,-0.8884,-0.89,-0.8917,-0.8938,-0.8954,-0.8973,-0.8991,-0.9012,-0.9016,-0.9026,-0.9039,-0.9057,-0.9068,-0.9057,-0.9085,-0.9086,-0.9078,-0.9088,-0.9084,-0.9098,-0.9087,-0.9088,-0.9088,0,-0.8799,-0.8821,-0.885,-0.888,-0.8889,-0.8903,-0.8929,-0.8947,-0.8972,-0.8983,-0.9001,-0.9014,-0.9036,-0.9036,-0.9068,-0.9059,-0.9072,-0.9084,-0.9085,-0.9088,-0.9087,-0.9092,-0.9103,-0.9105,-0.9092,-0.9091,-0.9091,0,-0.8792,-0.8829,-0.8852,-0.8863,-0.8899,-0.8909,-0.8924,-0.8949,-0.8964,-0.8987,-0.8997,-0.9022,-0.9036,-0.9055,-0.9075,-0.9073,-0.9106,-0.9107,-0.9116,-0.9115,-0.9121,-0.912,-0.9134,-0.913,-0.913,-0.913,-0.913,0,-0.88,-0.8818,-0.8849,-0.8863,-0.8884,-0.8905,-0.8925,-0.8942,-0.8964,-0.8982,-0.8999,-0.9016,-0.9041,-0.9062,-0.9078,-0.9102,-0.9108,-0.9118,-0.9122,-0.9117,-0.9115,-0.9125,-0.9125,-0.913,-0.913,-0.913,-0.913,0,-0.8796,-0.8817,-0.8843,-0.8875,-0.8884,-0.8897,-0.8925,-0.894,-0.8957,-0.898,-0.8987,-0.9014,-0.904,-0.9062,-0.9095,-0.9106,-0.9132,-0.9136,-0.9123,-0.9125,-0.9133,-0.9132,-0.9153,-0.9158,-0.915,-0.915,-0.915,0,-0.8799,-0.8813,-0.8847,-0.886,-0.8875,-0.8896,-0.8912,-0.8935,-0.895,-0.8981,-0.8993,-0.9019,-0.9041,-0.9081,-0.9105,-0.9131,-0.9137,-0.9143,-0.914,-0.9135,-0.9137,-0.9136,-0.9138,-0.9142,-0.9142,-0.9142,-0.9142,0,-0.8803,-0.8814,-0.8835,-0.8861,-0.888,-0.8901,-0.8923,-0.8933,-0.896,-0.8977,-0.9004,-0.9021,-0.9056,-0.9082,-0.9112,-0.9128,-0.914,-0.9143,-0.9146,-0.914,-0.9132,-0.9137,-0.9123,-0.9142,-0.9142,-0.9142,-0.9142,-0.9142,-0.8803,-0.8817,-0.8843,-0.8867,-0.8886,-0.8907,-0.8923,-0.8943,-0.8965,-0.8995,-0.9008,-0.9035,-0.9062,-0.9102,-0.9119,-0.9141,-0.9143,-0.9148,-0.9149,-0.915,-0.915,-0.9129,-0.9147,-0.9147,-0.9147,-0.9147,-0.9147,0,-0.8808,-0.8827,-0.8849,-0.8879,-0.8899,-0.8909,-0.8934,-0.895,-0.8973,-0.8997,-0.902,-0.9051,-0.9077,-0.9104,-0.9132,-0.9145,-0.9151,-0.9151,-0.915,-0.9154,-0.9146,-0.914,-0.9146,-0.9146,-0.9146,-0.9146,-0.9146,-0.9146,-0.8813,-0.8838,-0.8852,-0.8886,-0.8905,-0.8931,-0.8945,-0.8965,-0.8984,-0.9018,-0.904,-0.9058,-0.9083,-0.9114,-0.9139,-0.9146,-0.9156,-0.9155,-0.9164,-0.9155,-0.9155,-0.9155,-0.9149,-0.9157,-0.9157,-0.9171,-0.9171,-0.9171]}]]